Weather History for Naples, Italy

Change the Weather History Date:

Wednesday, September 7, 2011

  Actual Average Record
Temperature  
Mean Temperature 76 °F -  
Max Temperature 84 °F 77 °F 91 °F (2008)
Min Temperature 69 °F 58 °F 53 °F (2007)
Cooling Degree Days 12    
Growing Degree Days 26 (Base 50)    
Moisture  
Dew Point 65 °F    
Average Humidity 67    
Maximum Humidity 83    
Minimum Humidity 46    
Precipitation  
Precipitation 0.00 in 0.12 in - ()
Sea Level Pressure  
Sea Level Pressure 29.99 in    
Wind  
Wind Speed 4 mph ()    
Max Wind Speed 12 mph    
Max Gust Speed -    
Visibility 7.6 miles    
Events      
Averages and records for this station are not official NWS values.
T = Trace of Precipitation, MM = Missing Value Source: Averaged Metar Reports

Daily Weather History Graph

Daily Weather History Graph

Search for Another Location

Airport:

Trip Planner

Search our weather history database for the weather conditions in past years. The results will help you decide how hot, cold, wet, or windy it might be!

Date:

Astronomy

Sep. 07, 2011 Rise Set
Actual Time 6:35 AM CEST 7:26 PM CEST
Civil Twilight 6:07 AM CEST 7:54 PM CEST
Nautical Twilight 5:33 AM CEST 8:27 PM CEST
Astronomical Twilight 4:59 AM CEST 9:01 PM CEST
Moon 4:34 PM CEST (9/7) 1:31 AM CEST (9/7)
Length of Visible Light 13h 46m
Length of Day
12h 51m
Waxing Gibbous, 77% of the Moon is Illuminated
Sep 7
Waxing Gibbous
Sep 12
Full
Sep 20
Last Quarter
Sep 27
New
Oct 4
First Quarter

Hourly Weather History & Observations

Time (CEST) Temp. Heat Index Dew Point Humidity Pressure Visibility Wind Dir Wind Speed Gust Speed Precip Events Conditions
12:20 AM 73.4 °F - 64.4 °F 73% 30.06 in 6.2 mi NE 3.5 mph - N/A   Partly Cloudy
12:50 AM 73.4 °F - 64.4 °F 73% 30.06 in 6.2 mi Variable 2.3 mph - N/A   Partly Cloudy
1:20 AM 73.4 °F - 64.4 °F 73% 30.06 in - North - - N/A   Partly Cloudy
1:50 AM 73.4 °F - 64.4 °F 73% 30.06 in 6.2 mi NNE 1.2 mph - N/A   Partly Cloudy
2:00 AM 73 °F - 64 °F 66% 30.06 in 12 mi NNE 2.3 mph - -   Scattered Clouds
2:20 AM 71.6 °F - 64.4 °F 78% 30.06 in 6.2 mi NNE 3.5 mph - N/A   Partly Cloudy
2:50 AM 71.6 °F - 64.4 °F 78% 30.04 in 6.2 mi Variable 2.3 mph - N/A   Partly Cloudy
3:20 AM 71.6 °F - 64.4 °F 78% 30.04 in 6.2 mi Variable 2.3 mph - N/A   Partly Cloudy
3:50 AM 71.6 °F - 64.4 °F 78% 30.04 in 6.2 mi NNE 2.3 mph - N/A   Partly Cloudy
4:20 AM 69.8 °F - 64.4 °F 83% 30.04 in 6.2 mi NW 1.2 mph - N/A   Partly Cloudy
4:50 AM 71.6 °F - 64.4 °F 78% 30.04 in 6.2 mi Calm Calm - N/A   Partly Cloudy
5:00 AM 71 °F - 64 °F 73% 30.04 in 12 mi ENE 1.2 mph - -   Scattered Clouds
5:20 AM 69.8 °F - 62.6 °F 78% 30.04 in 6.2 mi NE 4.6 mph - N/A   Partly Cloudy
5:50 AM 69.8 °F - 62.6 °F 78% 30.04 in 6.2 mi NE 3.5 mph - N/A   Partly Cloudy
6:20 AM 69.8 °F - 62.6 °F 78% 30.04 in 6.2 mi NNE 2.3 mph - N/A   Partly Cloudy
6:50 AM 69.8 °F - 62.6 °F 78% 30.04 in 6.2 mi North 2.3 mph - N/A   Partly Cloudy
7:20 AM 71.6 °F - 64.4 °F 78% 30.04 in - North 3.5 mph - N/A   Clear
7:50 AM 71.6 °F - 64.4 °F 78% 30.01 in - NNE 3.5 mph - N/A   Clear
8:20 AM 73.4 °F - 64.4 °F 73% 30.01 in - NE 4.6 mph - N/A   Clear
8:50 AM 75.2 °F - 66.2 °F 73% 30.01 in - Variable 2.3 mph - N/A   Clear
9:20 AM 77.0 °F - 66.2 °F 69% 30.01 in - NNE 4.6 mph - N/A   Clear
9:50 AM 78.8 °F - 66.2 °F 65% 30.01 in - NNE 3.5 mph - N/A   Clear
10:20 AM 80.6 °F 82.7 °F 66.2 °F 61% 30.01 in 6.2 mi Variable 2.3 mph - N/A   Partly Cloudy
10:50 AM 80.6 °F 82.3 °F 64.4 °F 58% 30.01 in 6.2 mi Variable 3.5 mph - N/A   Scattered Clouds
11:00 AM 82 °F - 65 °F 46% 30.01 in 12 mi NNE 2.3 mph - -   Partly Cloudy
11:20 AM 80.6 °F 82.3 °F 64.4 °F 58% 30.01 in 6.2 mi WNW 4.6 mph - N/A   Scattered Clouds
11:50 AM 82.4 °F 84.6 °F 66.2 °F 58% 30.01 in 6.2 mi South 6.9 mph - N/A   Scattered Clouds
12:20 PM 82.4 °F 84.6 °F 66.2 °F 58% 29.98 in 6.2 mi SW 8.1 mph - N/A   Scattered Clouds
12:50 PM 84.2 °F 86.6 °F 66.2 °F 55% 29.98 in 6.2 mi South 8.1 mph - N/A   Scattered Clouds
1:20 PM 84.2 °F 86.6 °F 66.2 °F 55% 29.98 in 6.2 mi South 9.2 mph - N/A   Scattered Clouds
1:50 PM 84.2 °F 86.6 °F 66.2 °F 55% 29.98 in 6.2 mi South 10.4 mph - N/A   Scattered Clouds
2:20 PM 84.2 °F 86.6 °F 66.2 °F 55% 29.95 in 6.2 mi South 11.5 mph - N/A   Scattered Clouds
2:50 PM 82.4 °F 84.6 °F 66.2 °F 58% 29.95 in 6.2 mi South 11.5 mph - N/A   Scattered Clouds
3:20 PM 84.2 °F 85.6 °F 64.4 °F 51% 29.95 in 6.2 mi South 10.4 mph - N/A   Scattered Clouds
3:50 PM 84.2 °F 87.3 °F 68.0 °F 58% 29.95 in 6.2 mi South 10.4 mph - N/A   Scattered Clouds
4:20 PM 82.4 °F 86.3 °F 69.8 °F 66% 29.95 in 6.2 mi South 11.5 mph - N/A   Scattered Clouds
4:50 PM 80.6 °F 83.9 °F 69.8 °F 70% 29.95 in 6.2 mi South 11.5 mph - N/A   Scattered Clouds
5:00 PM 82 °F - 69 °F 58% 29.93 in 17 mi South 10.4 mph - -   Partly Cloudy
5:20 PM 82.4 °F 85.4 °F 68.0 °F 62% 29.95 in 6.2 mi Variable 6.9 mph - N/A   Scattered Clouds
5:50 PM 80.6 °F 82.7 °F 66.2 °F 61% 29.95 in 6.2 mi West 10.4 mph - N/A   Partly Cloudy
6:20 PM 78.8 °F - 68.0 °F 69% 29.95 in 6.2 mi WNW 9.2 mph - N/A   Partly Cloudy
6:50 PM 78.8 °F - 66.2 °F 65% 29.92 in 6.2 mi West 8.1 mph - N/A   Scattered Clouds
7:20 PM 77.0 °F - 66.2 °F 69% 29.92 in 6.2 mi West 6.9 mph - N/A   Scattered Clouds
7:50 PM 77.0 °F - 64.4 °F 65% 29.95 in - West 5.8 mph - N/A   Clear
8:00 PM 76 °F - 65 °F 61% 29.94 in 17 mi West 5.8 mph - -  
8:20 PM 75.2 °F - 64.4 °F 69% 29.95 in - West 4.6 mph - N/A   Clear
8:50 PM 77.0 °F - 64.4 °F 65% 29.95 in - Variable 4.6 mph - N/A   Clear
9:20 PM 75.2 °F - 64.4 °F 69% 29.95 in - SSW 3.5 mph - N/A   Clear
9:50 PM 75.2 °F - 66.2 °F 73% 29.95 in - SSW 3.5 mph - N/A   Clear
10:20 PM 75.2 °F - 64.4 °F 69% 29.95 in - Variable 2.3 mph - N/A   Clear
10:50 PM 75.2 °F - 62.6 °F 65% 29.95 in - SSW 3.5 mph - N/A   Clear
11:00 PM 74 °F - 62 °F 57% 29.95 in 19 mi SW 2.3 mph - -  
11:20 PM 75.2 °F - 62.6 °F 65% 29.95 in - SW 4.6 mph - N/A   Clear
11:50 PM 75.2 °F - 62.6 °F 65% 29.95 in - WSW 4.6 mph - N/A   Clear